Погода в Уржаре

Погода в Уржаре : погода сейчас, прогноз погоды и архив. Всё, что Вы хотите узнать о погоде в Уржаре!

Поиск расширенной информации на нашем сайте:

Другие новости

Новости СМИ2

Главная страница сайта

Новости сайта

03.07.2017

Напоминаем, что на нашем специализированном сайте Метеоцентр.Азия вы можете получить высокодетализированные автоматические прогнозы погоды по пунктам России, СНГ и мира в авиационном формате (включающие направление и скорость ветра, видимость, явления погоды, количество и форму облачности, нижнюю и верхнюю границу облачности).


Погода в Уржаре - сегодня

Время (UTC), дата Ветер
(°,м/с) 
Видим.   Явления Облачность Т
(°С)
Тd
(°С)
f(%) Тe
(°С)
Pmin
(гПа)
dP
(гПа)
Po
(мм)
O2
(г/м3)
Тmin Tmax R s Состояние
почвы
03 19.08.17 тихо ()   20000 м    4/3 600 м верхняя 
[Cu hum|Ci fib]
+19.8 +8.8 49 +20  1015.5  0.1  751  280           
06 19.08.17 140 (ЮВ) 20000 м    6/4 600 м кучево-дожд., верхняя 
[Cb cap|Ci fib]
+23.9 +8.7 38 +24  1013.5  -1.1  719  265  +5.6         
09 19.08.17 230 (ЮЗ) 20000 м    8/6 600 м кучево-дожд., верхняя 
[Cb cap|Ci fib]
+26.1 +6.6 29 +26  1011.7  -1.4  718  263           
12 19.08.17 300 (СЗ) 20000 м    3/3 600 м 
[Cu hum]
+23.3 +7 35 +23  1013.5  1.2  719  266           
15 19.08.17 тихо ()   20000 м    1/1 600 м 
[Sc diur, vesp]
+17.3 +7.6 53 +17  1016.1  1.4  720  271    +26.4       
18 19.08.17 360 (С) н/о    ясно 
+16.7 +9.8 64 +20  1016.7  0.5  720  272    +26.4       
21 19.08.17 030 (СВ) н/о    ясно 
+16.1 +8.6 61 +16  1017.1  0.2  720  273           
00 20.08.17 020 (С) 20000 м    3/3 600 м 
[Sc]
+11.3 +8.3 82 +12  1018.4  0.3  721  277           
03 20.08.17 010 (С) 20000 м    3/3 600 м средняя 
[Cu hum|Ac trans]
+19.2 +12.1 63 +26  1016.9  0.2  721  269           
06 20.08.17 тихо ()   20000 м    3/3 600 м 
[Cu hum]
+22.8 +13.7 56 +30  1015.2  0.9  720  265  +10.8         
09 20.08.17 250 (З) 20000 м    3/3 600 м 
[Cu hum]
+23.9 +9.5 40 +25  1013.8  -1.2  719  265           
12 20.08.17 030 (СВ) 20000 м    3/3 600 м 
[Cu hum]
+22.1 +6.3 36 +22  1014.2  719  267           
15 20.08.17 020 (С) 20000 м    1/1 600 м 
[Sc diur, vesp]
+17.6 +6.3 47 +18  1016.7  1.5  720  272    +24.2       
18 20.08.17 010 (С) н/о    ясно 
+16.3 +6 50 +17  1017.7  0.7  721  273    +24.2       
21 20.08.17 тихо ()   н/о    ясно 
+13.1 +6.6 65 +13  1018.1  -0.2  721  276           
00 21.08.17 тихо ()   20000 м    ясно 
+5.5 +2.4 80 +6  1020.5  0.7  721  284           
03 21.08.17 тихо ()   20000 м    ясно 
+17.2 +6.7 50 +17  1018.9  0.8  751  283           
06 21.08.17 350 (С) 20000 м    1/1 600 м 
[Cu hum]
+21.7 +5.9 36 +22  1017.5  -0.5  721  268  +5.2         
09 21.08.17 тихо ()   20000 м    3/3 600 м 
[Cu hum]
+24 +0.7 22 +24  1015.5  -1.5  720  267           
12 21.08.17 040 (СВ) 20000 м    3/3 600 м 
[Cu hum]
+23.3 +5.9 32 +23  1015.5  -0.1  720  266           
15 21.08.17 040 (СВ) н/о    ясно 
+19.2 +10.9 59 +23  1016.8  0.6  721  269    +24.5       
18 21.08.17 030 (СВ) н/о    ясно 
+17.6 +11.7 68 +22  1016.9  -0.2  721  270    +24.5       
21 21.08.17 тихо ()   н/о    ясно 
+8.7 +5.7 81 +9  1018.3  -0.5  720  280           
00 22.08.17 тихо ()   20000 м    ясно 
+3.8 +1.3 84 +4  1019.3  -0.1  720  286           
03 22.08.17 тихо ()   20000 м    ясно 
+17.6 +4.1 41 +18  1016.9  0.5  750  283           
Время (UTC), дата Ветер
(°,м/с) 
Видим.   Явления Облачность Т
(°С)
Тd
(°С)
f(%) Тe
(°С)
Pmin
(гПа)
dP
(гПа)
Po
(мм)
O2
(г/м3)
Тmin Tmax R s Состояние
почвы

Для получения пояснительной информации подведите курсор к названию столбца.

ПОГОДА в Уржаре - архив

Всё, что Вы хотите узнать о погоде в Уржаре - удобно и подробно!

Выберите нужную дату (начиная с 1 января 2015* года) и нажмите кнопку "Найти".
Будут отображены архивные сводки погоды по пункту Уржар, начиная с указанной даты.


Отображать данные в формате CSV (для использования в таблицах Excel)


Внимание! Наш архив погоды предназначен исключительно для личного некоммерческого использования в познавательных целях. Если Вам необходимы официальные справки о состоянии погоды (для производственных, юридических, коммерческих и т.п. целей), обращайтесь в органы Росгидромета.

*Примечание: данная дата относится к архиву по метеостанциям СССР (Россия, СНГ, Балтия).
Архив по метеостанциям Зарубежной Европы и Азии (кроме Китая) хранится 10 дней, по другим регионам земного шара (Китай, Африка, Америка, Австралия, Океания) - 1 день.

Уржар - район местоположения метеостанции


Название, широта, долгота, высота метеостанции:
Уржар 47.1°ш. 81.6°д. 491 м над ур. моря [Казахстан]

Дополнительная информация

В oтличие oт бoльшинства пoгoдных сайтoв мы публикуем пoдрoбную метеoинфoрмацию в детальнoм прoфессиoнальнoм фoрмате.

Характеристики температуры и влажнoсти вoздуха измеряются на высoте 2 м в тени вдали oт зданий и деревьев.
Скoрoсть ветра измеряется на высoте 10 м (на урoвне рoста челoвека скoрoсть ветра ниже в 1.5-2 раза). Если метеoстанция нахoдится в гoрoде или в лесу, тo скoрoсть ветра занижена на 2-4 м/с пo сравнению с oткрытым местoм. Скoрoсть ветра над акватoриями крупных рек и oзёр, а также на вершинах хoлмoв на 2-5 м/с выше, чем в oбычных услoвиях.
Атмoсфернoе давление в разных тoчках местнoсти мoжет значительнo oтличаться oт давления на метеoстанции, в зависимoсти oт услoвий рельефа (при пoдъёме на 10 м давление пoнижается примернo на 1 мм рт.ст.).